EHI
0 0 0 0 0 0 0 0 0 0 0 0 0 0 0 0 0 0 0 0 0 0 0 0 0 0 0 0 0 0 0 0 0 0 0 0 0 0 0 0 0 0 0 0
0 0 0 0 0 0 0 0 0 0 0 0 0 0 0 0 0 0 0 0 0 0 0 0 0 0 0 0 0 0 0 0 0 0 0 0 0 0 0 0 0 0 0 0
0 0 0 0 0 0 0 0 0 0 0 0 0 0 0 0 0 0 0 0 0 0 0 0 0 0 0 0 0 0 0 0 0 0 0 0 0 0 0 0 0 0 0 0
0 0 0 0 0 0 0 0 0 0 0 0 0 0 0 0 0 0 0 0 0 0 0 0 0 0 0 0 0 0 0 0 0 0 0 0 0 0 0 0 0 0 0 0
0 0 0 0 0 0 0 0 0 0 0 0 0 0 0 0 0 0 0 0 0 0 0 0 0 0 0 0 0 0 0 0 0 0 0 0 0 0 0 0 0 0 0 0
0 0 0 0 0 0 0 0 0 0 0 0 0 0 0 0 0 0 0 0 0 0 0 0 0 0 0 0 0 0 0 0 0 0 0 0 0 0 0 0 0 0 0 0
0 0 0 0 0 0 0 0 0 0 0 0 0 0 0 0 0 0 0 0 0 0 0 0 0 0 0 0 0 0 0 0 0 0 0 0 0 0 0 0 0 0 0 0
0 0 0 0 0 0 0 0 0 0 0 0 0 0 0 0 0 0 0 0 0 0 0 0 0 0 0 0 0 0 0 0 0 0 0 0 0 0 0 0 0 0 0 0
0 0 0 0 0 0 0 0 0 0 0 0 0 0 0 0 0 0 0 0 0 0 0 0 0 0 0 0 0 0 0 0 0 0 0 0 0 0 0 0 0 0 0 0
0 0 0 0 0 0 0 0 0 0 0 0 0 0 0 0 0 0 0 0 0 0 0 0 0 0 0 0 0 0 0 0 0 0 0 0 0 0 0 0 0 0 0 0
0 0 0 0 0 0 0 0 0 0 0 0 0 0 0 0 0 0 0 0 0 0 0 0 0 0 0 0 0 0 0 0 0 0 0 0 0 0 0 0 0 0 0 0
0 0 0 0 0 0 0 0 0 0 0 0 0 0 0 0 0 0 0 0 0 0 0 0 0 0 0 0 0 0 0 0 0 0 0 0 0 0 0 0 0 0 0 0
0 0 0 0 0 0 0 0 0 0 0 0 0 0 0 0 0 0 0 0 0 0 0 0 0 0 0 0 0 0 0 0 0 0 0 0 0 0 0 0 0 0 0 0
0 0 0 0 0 0 0 0 0 0 0 0 0 0 0 0 0 0 0 0 0 0 0 0 0 0 0 0 0 0 0 0 0 0 0 0 0 0 0 0 0 0 0 0
0 0 0 0 0 0 0 0 0 0 0 0 0 0 0 0 0 0 0 0 0 0 0 0 0 0 0 0 0 0 0 0 0 0 0 0 0 0 0 0 0 0 0 0
0 0 0 0 0 0 0 0 0 0 0 0 0 0 0 0 0 0 0 0 0 0 0 0 0 0 0 0 0 0 0 0 0 0 0 0 0 0 0 0 0 0 0 0
0 0 0 0 0 0 0 0 0 0 0 0 0 0 0 0 0 0 0 0 0 0 0 0 0 0 0 0 0 0 0 0 0 0 0 0 0 0 0 0 0 0 0 0
0 0 0 0 0 0 0 0 0 0 0 0 0 0 0 0 0 0 0 0 0 0 0 0 0 0 0 0 0 0 0 0 0 0 0 0 0 0 0 0 0 0 0 0
0 0 0 0 0 0 0 0 0 0 0 0 0 0 0 0 0 0 0 0 0 0 0 0 0 0 0 0 0 0 0 0 0 0 0 0 0 0 0 0 0 0 0 0
0 0 0 0 0 0 0 0 0 0 0 0 0 0 0 0 0 0 0 0 0 0 0 0 0 0 0 0 0 0 0 0 0 0 0 0 0 0 0 0 0 0 0 0
0 0 0 0 0 0 0 0 0 0 0 0 0 0 0 0 0 0 0 0 0 0 0 0 0 0 0 0 0 0 0 0 0 0 0 0 0 0 0 0 0 0 0 0
0 0 0 0 0 0 0 0 0 0 0 0 0 0 0 0 0 0 0 0 0 0 0 0 0 0 0 0 0 0 0 0 0 0 0 0 0 0 0 0 0 0 0 0
0 0 0 0 0 0 0 0 0 0 0 0 0 0 0 0 0 0 0 0 0 0 0 0 0 0 0 0 0 0 0 0 0 0 0 0 0 0 0 0 0 0 0 0
0 0 0 0 0 0 0 0 0 0 0 0 0 0 0 0 0 0 0 0 0 0 0 0 0 0 0 0 0 0 0 0 0 0 0 0 0 0 0 0 0 0 0 0
0 0 0 0 0 0 0 0 0 0 0 0 0 0 0 0 0 0 0 0 0 0 0 0 0 0 0 0 0 0 0 0 0 0 0 0 0 0 0 0 0 0 0 0
0 0 0 0 0 0 0 0 0 0 0 0 0 0 0 0 0 0 0 0 0 0 0 0 0 0 0 0 0 0 0 0 0 0 0 0 0 0 0 0 0 0 0 0
0 0 0 0 0 0 0 0 0 0 0 0 0 0 0 0 0 0 0 0 0 0 0 0 0 0 0 0 0 0 0 0 0 0 0 0 0 0 0 0 0 0 0 0
Wind_Speed
7 4 3 5 6 5 7 7 6 6 6 4 6 5 6 8 7 7 7 7 8 8 8 9 9 9 9 9 9 10 10 9 8 9 10 11 13 14 14 14 14 11 12 14
6 2 2 6 8 7 7 7 8 8 4 6 4 5 7 8 7 6 6 7 8 8 9 9 10 10 10 9 9 10 9 8 8 9 10 11 13 13 13 13 12 11 12 14
5 2 4 8 6 10 5 6 5 3 1 4 4 5 5 7 6 5 5 6 7 8 8 9 9 9 10 10 11 10 9 8 9 9 11 11 13 12 12 11 10 11 12 12
5 7 6 3 3 0 5 4 4 2 2 4 4 6 9 7 5 5 5 6 6 7 7 8 7 8 9 10 10 9 9 9 9 10 10 10 10 10 9 8 9 9 10 12
2 4 11 3 3 2 3 5 4 4 3 5 5 4 5 5 5 4 4 4 5 6 7 8 8 9 9 10 9 9 10 10 10 10 10 10 10 9 9 8 8 8 9 11
2 3 8 3 5 3 2 5 4 5 5 5 4 1 2 3 4 3 4 4 5 6 6 7 8 8 9 10 10 11 11 11 11 10 10 10 10 9 8 8 9 10 10 10
5 6 11 3 6 5 3 5 7 6 6 5 3 3 5 4 4 4 4 5 5 6 6 7 8 8 9 10 10 11 11 11 11 10 10 9 8 8 8 9 9 10 10 9
5 6 12 7 8 8 6 5 6 7 7 7 8 8 6 5 3 3 4 5 6 6 7 7 7 8 9 9 9 10 11 11 10 10 10 10 8 8 7 8 8 9 8 9
8 9 3 7 6 4 7 7 6 6 7 8 7 7 6 4 3 3 4 5 5 6 7 7 7 7 8 9 10 11 11 11 10 10 8 8 8 7 7 6 6 7 8 8
6 6 6 7 6 6 6 8 9 9 8 7 7 7 6 3 2 2 3 4 5 6 7 7 7 7 7 8 9 11 11 10 10 9 8 8 7 7 6 6 6 6 7 8
7 3 5 6 7 7 9 12 12 8 7 7 8 7 5 3 2 2 2 3 4 5 6 7 8 8 7 7 9 10 10 9 9 9 8 7 8 8 10 6 9 7 4 5
9 8 9 8 11 12 13 11 12 11 8 7 7 7 6 4 2 1 2 3 4 5 6 7 7 8 7 8 9 10 9 8 8 7 7 7 6 8 16 17 18 16 14 11
3 5 4 9 12 11 11 11 10 9 10 9 7 6 6 4 2 1 2 4 5 6 6 6 7 7 7 8 9 9 8 8 7 8 7 8 8 8 8 12 17 17 16 15
8 8 6 6 9 11 11 11 9 9 8 8 7 6 5 4 2 1 2 3 5 6 5 6 7 7 7 8 9 9 8 10 9 6 6 6 6 6 7 8 7 6 10 15
7 5 7 8 12 12 13 12 12 9 8 7 6 6 5 4 2 2 3 4 5 5 4 5 7 8 8 9 10 9 8 6 5 5 5 5 5 5 5 6 6 6 5 8
8 7 10 13 14 14 13 12 11 11 9 8 7 7 6 4 2 3 4 3 3 4 5 6 6 7 9 8 9 7 6 14 12 6 5 5 5 5 5 5 5 5 5 5
14 12 12 14 15 15 14 12 12 12 10 9 8 8 6 4 3 4 2 1 3 5 5 4 6 8 8 7 7 6 5 8 14 9 6 6 5 5 5 5 5 6 5 8
15 14 15 19 18 16 13 11 11 12 10 9 9 8 7 6 4 2 1 3 4 6 4 2 6 7 7 7 6 4 5 5 6 6 6 6 7 6 6 6 6 7 6 8
10 10 11 13 14 14 14 12 11 11 10 11 10 9 7 5 3 2 1 3 4 5 3 5 10 7 7 8 10 4 5 6 6 6 6 11 10 7 7 7 7 7 8 8
10 10 12 12 12 11 12 11 11 11 10 10 9 8 7 5 4 3 2 4 5 3 4 6 5 5 6 7 10 4 5 6 6 7 7 7 8 9 9 9 9 9 8 8
12 12 13 13 12 11 12 13 13 13 11 11 10 9 8 6 5 4 3 3 3 3 5 7 3 4 6 7 9 4 5 5 6 6 8 8 9 10 10 11 11 11 10 9
12 12 14 13 13 12 11 11 11 12 12 10 8 8 7 6 5 4 5 4 3 4 4 2 2 6 9 8 4 4 5 5 5 6 7 8 9 9 10 11 11 11 11 11
11 12 14 14 14 12 11 10 11 12 12 12 11 11 8 6 5 4 3 4 3 5 3 2 4 8 10 5 3 4 5 5 5 6 7 7 8 8 9 11 10 11 11 11
12 12 12 11 12 12 12 10 9 8 9 9 8 9 8 6 4 3 2 3 4 5 3 4 6 7 7 3 3 4 4 4 5 5 6 7 7 8 8 9 10 10 11 12
13 13 14 15 14 11 11 11 9 8 8 6 7 7 6 4 4 4 4 3 5 4 3 3 5 5 3 2 3 3 4 4 5 5 5 6 7 8 8 9 10 10 10 11
12 12 12 12 10 10 11 11 10 9 9 9 8 7 7 5 4 3 3 4 5 5 3 2 2 3 2 2 3 3 3 4 5 5 6 6 7 8 8 10 12 10 10 11
9 9 8 8 7 9 10 11 11 11 11 11 10 9 8 7 6 6 5 4 4 4 3 3 2 2 2 2 2 3 3 3 4 4 5 6 6 7 9 11 10 10 10 11
Wind_Direction
286 267 206 246 261 246 220 235 255 283 339 27 80 48 49 62 53 33 16 7 359 349 342 341 339 334 333 328 325 325 317 316 317 321 323 324 324 323 325 326 326 323 322 319
286 183 204 252 236 238 247 242 255 282 312 95 60 47 54 66 49 25 8 360 351 345 341 338 333 329 329 324 324 317 314 316 320 325 327 327 327 329 328 326 324 324 320 317
287 257 264 272 227 194 210 211 228 261 111 82 41 36 66 77 54 24 10 355 345 341 337 328 323 324 328 328 319 317 321 327 329 327 327 330 331 329 326 323 324 323 319 319
300 335 273 252 7 78 201 224 217 239 78 89 64 67 87 77 60 29 8 350 337 331 323 315 319 327 325 319 318 326 335 335 331 327 324 325 325 324 323 321 321 317 319 324
318 295 276 220 190 176 195 265 198 185 135 97 60 87 88 63 62 42 11 352 332 324 318 325 327 323 323 322 330 341 340 337 331 327 326 327 327 327 327 324 321 319 323 328
183 249 263 247 136 100 84 262 151 137 127 99 64 332 153 95 67 43 14 353 338 331 333 328 318 321 329 333 343 343 339 333 328 328 328 327 330 330 329 328 330 330 331 333
215 239 266 153 134 124 170 244 139 129 121 113 117 133 132 109 72 40 14 352 349 342 333 319 317 333 337 339 343 338 333 329 329 330 330 332 332 331 333 337 337 337 338 340
200 230 257 151 151 192 204 126 127 121 117 117 116 117 115 103 78 40 9 354 351 340 325 318 331 343 338 339 336 335 332 331 332 332 336 346 337 336 338 341 344 344 348 351
205 221 177 163 182 159 132 139 125 117 120 124 128 129 123 113 83 41 12 354 343 331 321 326 341 345 337 333 339 337 334 334 333 333 339 342 342 341 341 343 347 353 354 356
273 249 183 180 134 141 140 126 118 124 128 131 131 129 127 120 90 41 8 347 337 330 329 332 338 338 331 336 341 335 334 336 336 339 344 345 347 347 346 343 350 2 359 356
251 231 136 180 160 146 116 113 114 116 122 132 130 136 142 144 106 47 353 337 335 330 328 328 330 330 334 345 341 335 333 337 339 343 343 346 351 351 353 348 3 11 352 346
227 201 179 194 166 144 139 140 140 134 129 131 136 143 149 155 128 57 339 338 339 334 330 323 326 328 336 346 341 336 339 343 342 342 346 348 348 350 357 2 7 12 9 8
154 115 120 141 145 141 145 145 145 144 144 138 138 147 154 144 127 48 350 353 335 322 313 319 329 329 338 343 340 337 336 338 341 344 344 350 354 351 348 353 4 7 6 3
120 108 115 138 148 142 133 135 128 123 129 139 147 150 141 132 120 1 327 315 303 302 313 334 330 328 334 336 337 335 333 338 345 331 336 340 345 346 347 347 347 347 354 356
163 150 154 139 128 126 132 135 135 141 148 152 144 142 147 157 184 254 286 284 293 305 335 333 324 325 329 334 338 332 331 328 331 328 330 332 334 336 337 338 337 334 330 341
166 138 136 142 145 147 150 153 157 163 162 155 153 162 165 161 192 259 265 276 316 314 313 310 314 318 325 333 335 331 328 338 346 338 329 328 326 326 326 324 324 323 323 318
155 160 162 168 166 169 172 171 168 166 163 162 167 160 154 165 223 250 250 2 309 283 279 299 312 309 317 324 325 324 322 326 339 336 323 322 322 321 318 316 315 316 311 316
182 179 175 173 172 171 171 166 161 162 164 161 150 152 165 184 208 207 307 317 300 290 275 320 301 302 313 315 321 322 319 318 320 320 323 327 332 325 318 314 312 312 309 313
172 164 164 165 166 166 165 164 161 156 151 151 159 170 178 180 166 178 268 285 282 284 290 309 316 331 317 321 340 328 324 322 324 325 327 337 340 328 324 320 316 311 308 308
163 157 153 151 152 156 158 154 147 150 154 157 159 161 167 174 176 196 240 255 246 251 285 290 303 313 313 319 340 331 326 326 328 331 336 338 337 335 333 331 328 322 315 308
159 153 150 152 153 154 155 153 154 158 160 163 166 169 172 173 174 184 215 259 237 228 275 306 332 309 308 331 343 333 327 329 332 335 340 341 339 338 338 338 338 337 334 326
159 156 156 155 154 155 154 154 156 156 158 164 164 159 160 170 182 201 222 228 251 281 288 294 298 308 327 344 337 325 329 335 337 338 342 342 340 339 338 339 339 340 341 338
160 160 160 161 160 153 148 155 160 162 166 170 171 172 174 179 182 190 220 202 210 267 283 263 291 315 334 350 330 327 332 337 338 340 341 339 337 336 335 336 337 338 338 339
160 160 158 149 139 145 159 166 160 162 165 166 170 170 167 171 189 204 202 202 231 261 266 273 296 316 339 343 325 327 328 327 328 336 338 336 335 334 333 334 336 336 337 338
159 155 152 153 159 167 163 150 145 150 156 164 168 172 174 171 173 172 167 191 232 256 265 276 291 316 333 317 319 323 322 320 331 342 337 333 332 332 331 333 335 335 337 339
161 165 167 170 166 159 156 160 167 171 174 177 180 180 181 181 182 173 177 198 220 240 242 245 266 293 296 305 312 317 317 323 335 334 328 331 328 329 329 330 330 333 336 337
147 153 153 157 160 159 161 169 175 179 182 182 180 178 178 178 180 187 192 198 204 214 221 224 226 241 262 282 296 305 309 312 317 321 326 327 326 326 326 325 327 332 336 337